Location: Unspecified
(40.7945°N, 0.0000°E)
Time: 07:01:37
(UTC+00:00)

Explorer 7 - Pass Details

Date: 28 January 2021
Orbit: 484 x 677 km, 50.3° (Epoch: 28 February)

Event Time Altitude Azimuth Distance (km) Brightness Sun altitude
Rises 06:26:34 0° 300° (WNW) 2,600 - -9.2°
Exits shadow 06:28:50 - 314° (NW) 1,817 8.9 -8.8°
Reaches altitude 10° 06:29:05 10° 316° (NW) 1,741 8.8 -8.8°
Maximum altitude 06:32:13 22° 8° (N) 1,197 8.5 -8.2°
Drops below altitude 10° 06:35:28 10° 60° (ENE) 1,821 10.1 -7.6°
Sets 06:38:11 0° 76° (ENE) 2,756 11.5 -7.1°
